Colorado Springs, CO

10:12 PM MST on February 24, 2017 (GMT -0700)
Usaf Academy

Weather History for KAFF - October, 2013

Change the Weather History Date:

Saturday, October 12, 2013

  Actual Average Record
Temperature  
Mean Temperature 44 °F -  
Max Temperature 53 °F 62 °F 78 °F (1996)
Min Temperature 38 °F 34 °F 30 °F (2005)
Degree Days  
Heating Degree Days 20    
Moisture  
Dew Point 36 °F    
Average Humidity 76    
Maximum Humidity 97    
Minimum Humidity 49    
Precipitation  
Precipitation 0.00 in - - ()
Sea Level Pressure  
Sea Level Pressure 30.15 in    
Wind  
Wind Speed 9 mph (SSE)    
Max Wind Speed 22 mph    
Max Gust Speed 29 mph    
Visibility 10 miles    
Events      
Averages and records for this station are not official NWS values.
T = Trace of Precipitation, MM = Missing Value Source: NWS Daily Summary

Daily Weather History Graph

Daily Weather History Graph

Search for Another Location

Airport or City:

Trip Planner

Search our weather history database for the weather conditions in past years. The results will help you decide how hot, cold, wet, or windy it might be!

Date:

Astronomy

Oct. 12, 2013 Rise Set
Actual Time 7:06 AM MDT 6:24 PM MDT
Civil Twilight 6:39 AM MDT 6:51 PM MDT
Nautical Twilight 6:08 AM MDT 7:22 PM MDT
Astronomical Twilight 5:37 AM MDT 7:53 PM MDT
Moon 2:33 PM MDT (10/12) 12:15 AM MDT (10/12)
Length of Visible Light 12h 12m
Length of Day
11h 18m
First Quarter, 59% of the Moon is Illuminated
Oct 12
First Quarter
Oct 18
Full
Oct 26
Last Quarter
Nov 3
New
Nov 9
First Quarter

Hourly Weather History & Observations

Time (MDT) Temp. Windchill Dew Point Humidity Pressure Visibility Wind Dir Wind Speed Gust Speed Precip Events Conditions
12:58 AM 40.8 °F 37.8 °F 39.0 °F 93% 29.99 in 10.0 mi SSE 4.6 mph - -   Scattered Clouds
1:58 AM 40.5 °F - 39.7 °F 97% 30.02 in 10.0 mi SSE 2.3 mph - -   Scattered Clouds
2:13 AM 41.0 °F 37.1 °F 39.2 °F 93% 30.14 in 10.0 mi South 5.8 mph - N/A   Mostly Cloudy
2:18 AM 41.0 °F 37.1 °F 39.2 °F 93% 30.14 in 10.0 mi South 5.8 mph - N/A   Mostly Cloudy
2:23 AM 41.0 °F 37.1 °F 39.2 °F 93% 30.14 in 10.0 mi South 5.8 mph - N/A   Mostly Cloudy
2:33 AM 41.0 °F 39.0 °F 39.2 °F 93% 30.15 in 10.0 mi SSE 3.5 mph - N/A   Mostly Cloudy
2:58 AM 41.4 °F 36.2 °F 39.6 °F 93% 30.05 in 10.0 mi SSE 8.1 mph - -   Overcast
3:18 AM 41.0 °F 38.0 °F 39.2 °F 93% 30.14 in 10.0 mi South 4.6 mph - N/A   Overcast
3:58 AM 41.2 °F 37.3 °F 39.2 °F 93% 30.07 in 10.0 mi SSE 5.8 mph - -   Overcast
4:08 AM 41.0 °F 35.2 °F 39.2 °F 93% 30.15 in 10.0 mi SSE 9.2 mph - N/A   Overcast
4:58 AM 40.5 °F 36.5 °F 38.1 °F 91% 30.10 in 10.0 mi South 5.8 mph - -   Overcast
5:53 AM 39.2 °F 35.0 °F 37.4 °F 93% 30.18 in 10.0 mi South 5.8 mph - N/A   Overcast
5:58 AM 39.2 °F 35.0 °F 37.4 °F 93% 30.14 in 10.0 mi South 5.8 mph - -   Overcast
6:28 AM 39.2 °F 35.0 °F 37.4 °F 93% 30.18 in 10.0 mi SSE 5.8 mph - N/A   Overcast
6:58 AM 38.8 °F 36.5 °F 37.4 °F 95% 30.17 in 10.0 mi South 3.5 mph - -   Mostly Cloudy
7:58 AM 40.1 °F 35.3 °F 38.3 °F 93% 30.19 in 10.0 mi South 6.9 mph - -   Overcast
8:43 AM 41.0 °F 35.8 °F 37.4 °F 87% 30.22 in 10.0 mi SSE 8.1 mph - N/A   Overcast
8:58 AM 40.8 °F 35.0 °F 37.2 °F 87% 30.19 in 10.0 mi SE 9.2 mph - -   Overcast
9:58 AM 42.3 °F 37.3 °F 37.6 °F 83% 30.19 in 10.0 mi SE 8.1 mph - -   Overcast
10:18 AM 44.6 °F 38.4 °F 37.4 °F 76% 30.23 in 10.0 mi SSE 12.7 mph - N/A   Overcast
10:23 AM 44.6 °F 38.4 °F 37.4 °F 76% 30.23 in 10.0 mi SE 12.7 mph - N/A   Mostly Cloudy
10:28 AM 44.6 °F 39.2 °F 37.4 °F 76% 30.23 in 10.0 mi SE 10.4 mph - N/A   Overcast
10:43 AM 44.6 °F 39.2 °F 37.4 °F 76% 30.23 in 10.0 mi SSE 10.4 mph - N/A   Mostly Cloudy
10:48 AM 44.6 °F 38.8 °F 37.4 °F 76% 30.23 in 10.0 mi SSE 11.5 mph - N/A   Mostly Cloudy
10:58 AM 44.4 °F 38.6 °F 37.9 °F 78% 30.19 in 10.0 mi SSE 11.5 mph - -   Overcast
11:23 AM 46.4 °F 39.2 °F 35.6 °F 66% 30.22 in 10.0 mi SSE 18.4 mph 23.0 mph N/A   Mostly Cloudy
11:48 AM 48.2 °F - 35.6 °F 62% 30.21 in 10.0 mi SSE 16.1 mph - N/A   Mostly Cloudy
11:58 AM 49.3 °F - 36.9 °F 62% 30.13 in 10.0 mi SSE 18.4 mph - -   Mostly Cloudy
12:08 PM 50.0 °F - 37.4 °F 62% 30.21 in 10.0 mi South 16.1 mph 24.2 mph N/A   Mostly Cloudy
12:28 PM 50.0 °F - 35.6 °F 58% 30.20 in 10.0 mi SSE 18.4 mph - N/A   Mostly Cloudy
12:38 PM 50.0 °F - 35.6 °F 58% 30.19 in 10.0 mi South 21.9 mph 27.6 mph N/A   Scattered Clouds
12:58 PM 50.9 °F - 35.8 °F 56% 30.11 in 10.0 mi SSE 20.7 mph 26.5 mph -   Scattered Clouds
1:58 PM 50.7 °F - 35.4 °F 56% 30.09 in 10.0 mi SSE 17.3 mph 25.3 mph -   Mostly Cloudy
2:58 PM 51.8 °F - 34.9 °F 53% 30.07 in 10.0 mi SSE 18.4 mph 26.5 mph -   Scattered Clouds
3:58 PM 50.4 °F - 33.6 °F 53% 30.06 in 10.0 mi South 20.7 mph 28.8 mph -   Partly Cloudy
4:58 PM 50.9 °F - 32.7 °F 50% 30.06 in 10.0 mi SSE 20.7 mph 26.5 mph -   Clear
5:58 PM 50.9 °F - 32.5 °F 49% 30.09 in 10.0 mi SSE 19.6 mph 25.3 mph -   Clear
6:58 PM 48.6 °F - 32.9 °F 55% 30.11 in 10.0 mi South 13.8 mph - -   Partly Cloudy
7:58 PM 46.6 °F - 32.4 °F 58% 30.15 in 10.0 mi SSE 13.8 mph - -   Clear
8:58 PM 45.1 °F 38.8 °F 31.3 °F 58% 30.16 in 10.0 mi South 13.8 mph - -   Clear
9:58 PM 43.5 °F 37.1 °F 30.4 °F 60% 30.17 in 10.0 mi SSE 12.7 mph - -   Clear
10:58 PM 42.8 °F 36.6 °F 30.7 °F 62% 30.15 in 10.0 mi SE 11.5 mph - -   Clear
11:58 PM 38.7 °F - 30.6 °F 73% 30.16 in 10.0 mi Calm Calm - -   Clear